Find Iridium Next SV167

NORAD ID: 43931 Int'l Des: 2019-002 Owner: IRIDS Country: US Constellation: Iridium NEXT operational
LEOCIRCULARPOLAR

当前视图

正在加载3D地球...

关于 Iridium Next SV167

正在加载描述...

即将过境

Passes for default location (London). Set your location on the main map for personalized predictions.

高度历史

Loading altitude history...

两行轨道根数

1 43931U 19002K 26149.59656079 .00000000 00000-0 -70335-5 0 9995
2 43931 86.3975 1.3666 0001873 78.9918 281.1489 14.34217585386294
Epoch: May 29, 2026 • Age: 13 hours

当前状态

高度 806.5 km
速度 7.45 km/s
星下点 -75.87°S, 100.55°W
发射日期 Jan 11, 2019
运行时间 7.3 years
类型 communications

技术详情

分类 Payload
质量 860.00 kg
干质量 700.00 kg
总质量 860.00 kg
长度 3.10 m
直径 1.50 m
跨度 9.40 m
形状 Half Hex Prism+2 pan
制造商 NGISGA
平台类型 EliteBus
阶段状态 In Orbit
所有者/国家 IRIDS/US

Most Searched